Cadillac, MI

1:38 PM EDT on June 22, 2018 (GMT -0400)
Wexford County

Weather History for KCAD - June, 2018

Change the Weather History Date:

Wednesday, June 13, 2018

  Actual Average Record
Temperature  
Mean Temperature 66 °F -  
Max Temperature 73 °F 73 °F 89 °F (1954)
Min Temperature 57 °F 49 °F 32 °F (2012)
Growing Degree Days 16 (Base 50)    
Moisture  
Dew Point 56 °F    
Average Humidity 72    
Maximum Humidity 99    
Minimum Humidity 32    
Precipitation  
Precipitation 0.00 in - - ()
Sea Level Pressure  
Sea Level Pressure 29.87 in    
Wind  
Wind Speed 8 mph (West)    
Max Wind Speed 22 mph    
Max Gust Speed 30 mph    
Visibility 8 miles    
Events Rain    
Averages and records for this station are not official NWS values.
T = Trace of Precipitation, MM = Missing Value Source: NWS Daily Summary

Daily Weather History Graph

Daily Weather History Graph

Search for Another Location

Airport or City:

Astronomy

Jun. 13, 2018 Rise Set
Actual Time 5:57 AM EDT 9:26 PM EDT
Civil Twilight 5:20 AM EDT 10:03 PM EDT
Nautical Twilight 4:32 AM EDT 10:51 PM EDT
Astronomical Twilight 3:31 AM EDT 11:52 PM EDT
Moon 6:02 AM EDT (6/13) 9:18 PM EDT (6/13)
Length of Visible Light 16h 42m
Length of Day
15h 29m
Waning Crescent, 0% of the Moon is Illuminated
Jun 13
Waning Crescent
Jun 13
New
Jun 20
First Quarter
Jun 28
Full
Jul 6
Last Quarter

Hourly Weather History & Observations

Time (EDT) Temp. Dew Point Humidity Pressure Visibility Wind Dir Wind Speed Gust Speed Precip Events Conditions
12:15 AM 64.9 °F 64.4 °F 98% 29.87 in 10.0 mi Calm Calm - N/A   Overcast
12:35 AM 65.5 °F 64.6 °F 97% 29.86 in 10.0 mi Calm Calm - N/A   Overcast
12:55 AM 65.5 °F 64.6 °F 97% 29.86 in 10.0 mi WSW 3.5 mph - N/A   Overcast
1:15 AM 65.3 °F 64.6 °F 98% 29.85 in 10.0 mi WSW 5.8 mph - N/A   Overcast
1:35 AM 65.3 °F 64.8 °F 98% 29.85 in 10.0 mi WSW 4.6 mph - N/A   Overcast
1:55 AM 65.3 °F 64.8 °F 98% 29.84 in 10.0 mi WSW 3.5 mph - N/A   Overcast
2:15 AM 65.3 °F 64.8 °F 98% 29.84 in 10.0 mi Calm Calm - N/A   Overcast
2:35 AM 65.1 °F 64.8 °F 99% 29.85 in 7.0 mi West 3.5 mph - N/A   Overcast
2:55 AM 63.7 °F 63.3 °F 99% 29.83 in 5.0 mi WSW 3.5 mph - N/A   Scattered Clouds
3:15 AM 62.6 °F 62.2 °F 99% 29.82 in 4.0 mi SW 4.6 mph - N/A   Clear
3:35 AM 63.7 °F 63.5 °F 99% 29.83 in 4.0 mi SW 9.2 mph - N/A   Mostly Cloudy
3:55 AM 64.4 °F 64.0 °F 99% 29.82 in 4.0 mi SW 8.1 mph - N/A   Overcast
4:15 AM 64.4 °F 64.2 °F 99% 29.80 in 5.0 mi SW 6.9 mph - N/A   Overcast
4:35 AM 64.6 °F 64.2 °F 99% 29.80 in 5.0 mi SW 10.4 mph - N/A   Overcast
4:55 AM 64.6 °F 64.4 °F 99% 29.79 in 5.0 mi SW 9.2 mph - N/A   Overcast
5:15 AM 64.8 °F 64.4 °F 99% 29.78 in 5.0 mi SW 6.9 mph - N/A   Overcast
5:35 AM 64.9 °F 64.6 °F 99% 29.78 in 4.0 mi SW 8.1 mph - N/A   Overcast
5:55 AM 65.3 °F 64.8 °F 98% 29.78 in 4.0 mi SW 8.1 mph - N/A   Overcast
6:15 AM 64.9 °F 64.6 °F 99% 29.78 in 1.8 mi WSW 8.1 mph - N/A   Overcast
6:35 AM 64.8 °F 64.4 °F 99% 29.78 in 1.5 mi WSW 8.1 mph - N/A   Overcast
6:55 AM 64.8 °F 64.4 °F 99% 29.78 in 2.0 mi WSW 5.8 mph - N/A   Overcast
7:15 AM 65.3 °F 64.8 °F 98% 29.78 in 2.5 mi SW 10.4 mph - N/A   Overcast
7:35 AM 65.8 °F 65.5 °F 99% 29.78 in 3.0 mi SW 9.2 mph - N/A   Overcast
7:55 AM 66.4 °F 66.2 °F 99% 29.78 in 4.0 mi WSW 8.1 mph - N/A   Overcast
8:15 AM 66.9 °F 66.0 °F 97% 29.78 in 5.0 mi WSW 6.9 mph - N/A   Overcast
8:35 AM 67.1 °F 65.5 °F 95% 29.78 in 7.0 mi West 9.2 mph - N/A   Overcast
8:55 AM 67.1 °F 65.5 °F 95% 29.79 in 7.0 mi West 10.4 mph - N/A   Overcast
9:15 AM 65.7 °F 65.3 °F 99% 29.79 in 5.0 mi West 9.2 mph - N/A Rain Light Rain
9:35 AM 66.2 °F 65.7 °F 98% 29.79 in 5.0 mi WNW 9.2 mph - N/A   Overcast
9:55 AM 66.7 °F 65.5 °F 96% 29.80 in 10.0 mi West 11.5 mph - N/A   Overcast
10:15 AM 66.2 °F 64.6 °F 94% 29.81 in 10.0 mi WNW 16.1 mph 23.0 mph N/A   Overcast
10:35 AM 65.3 °F 62.1 °F 89% 29.82 in 10.0 mi WNW 16.1 mph 27.6 mph N/A   Overcast
10:55 AM 63.9 °F 61.0 °F 90% 29.84 in 10.0 mi West 15.0 mph 25.3 mph N/A   Overcast
11:15 AM 66.7 °F 61.7 °F 84% 29.84 in 10.0 mi NW 12.7 mph 17.3 mph N/A   Mostly Cloudy
11:35 AM 67.6 °F 60.3 °F 77% 29.84 in 10.0 mi WNW 13.8 mph 27.6 mph N/A   Mostly Cloudy
11:55 AM 69.8 °F 59.7 °F 70% 29.85 in 10.0 mi WNW 16.1 mph 21.9 mph N/A   Mostly Cloudy
12:15 PM 70.0 °F 58.1 °F 66% 29.86 in 10.0 mi WNW 17.3 mph 25.3 mph N/A   Mostly Cloudy
12:35 PM 71.4 °F 55.0 °F 56% 29.86 in 10.0 mi NW 19.6 mph 28.8 mph N/A   Scattered Clouds
12:55 PM 68.9 °F 55.2 °F 62% 29.87 in 10.0 mi WNW 16.1 mph 24.2 mph N/A   Scattered Clouds
1:15 PM 71.2 °F 55.0 °F 56% 29.88 in 10.0 mi NW 20.7 mph 28.8 mph N/A   Scattered Clouds
1:35 PM 70.0 °F 55.4 °F 60% 29.89 in 10.0 mi NW 21.9 mph 26.5 mph N/A   Mostly Cloudy
1:55 PM 69.3 °F 54.0 °F 58% 29.91 in 10.0 mi NNW 19.6 mph 26.5 mph N/A   Mostly Cloudy
2:15 PM 69.6 °F 54.1 °F 58% 29.91 in 10.0 mi NW 16.1 mph 25.3 mph N/A   Mostly Cloudy
2:35 PM 71.4 °F 53.2 °F 53% 29.91 in 10.0 mi NW 16.1 mph 26.5 mph N/A   Scattered Clouds
2:55 PM 72.3 °F 53.1 °F 51% 29.91 in 10.0 mi NW 21.9 mph 27.6 mph N/A   Scattered Clouds
3:15 PM 72.5 °F 52.0 °F 48% 29.91 in 10.0 mi NNW 17.3 mph 23.0 mph N/A   Clear
3:35 PM 72.5 °F 50.5 °F 46% 29.91 in 10.0 mi NW 16.1 mph 26.5 mph N/A   Scattered Clouds
3:55 PM 72.9 °F 48.9 °F 43% 29.91 in 10.0 mi WNW 18.4 mph 26.5 mph N/A   Scattered Clouds
4:15 PM 73.4 °F 45.5 °F 37% 29.92 in 10.0 mi WNW 19.6 mph 27.6 mph N/A   Clear
4:35 PM 72.7 °F 42.8 °F 34% 29.92 in 10.0 mi NNW 20.7 mph 29.9 mph N/A   Clear
4:55 PM 73.4 °F 44.2 °F 35% 29.92 in 10.0 mi NW 13.8 mph 25.3 mph N/A   Clear
5:15 PM 73.4 °F 44.2 °F 35% 29.92 in 10.0 mi NW 17.3 mph 23.0 mph N/A   Clear
5:35 PM 73.0 °F 42.1 °F 33% 29.93 in 10.0 mi NNW 16.1 mph 21.9 mph N/A   Clear
5:55 PM 72.7 °F 42.6 °F 34% 29.93 in 10.0 mi NNW 13.8 mph 23.0 mph N/A   Clear
6:15 PM 73.0 °F 42.4 °F 33% 29.94 in 10.0 mi NW 10.4 mph 20.7 mph N/A   Clear
6:35 PM 72.5 °F 40.6 °F 32% 29.95 in 10.0 mi NW 13.8 mph 20.7 mph N/A   Clear
6:55 PM 72.1 °F 41.9 °F 34% 29.95 in 10.0 mi NW 10.4 mph 16.1 mph N/A   Clear
7:15 PM 72.3 °F 43.0 °F 35% 29.95 in 10.0 mi NW 10.4 mph 20.7 mph N/A   Clear
7:35 PM 71.6 °F 42.4 °F 35% 29.96 in 10.0 mi NW 10.4 mph 18.4 mph N/A   Clear
7:55 PM 70.9 °F 43.2 °F 37% 29.96 in 10.0 mi WNW 12.7 mph 19.6 mph N/A   Clear
8:15 PM 70.3 °F 44.1 °F 39% 29.96 in 10.0 mi WNW 8.1 mph 16.1 mph N/A   Clear
8:35 PM 68.9 °F 43.9 °F 40% 29.96 in 10.0 mi West 8.1 mph - N/A   Clear
8:55 PM 66.7 °F 44.6 °F 45% 29.95 in 10.0 mi West 4.6 mph - N/A   Clear
9:15 PM 64.6 °F 44.6 °F 48% 29.95 in 10.0 mi West 4.6 mph - N/A   Clear
9:35 PM 62.4 °F 45.3 °F 54% 29.96 in 10.0 mi WSW 4.6 mph - N/A   Clear
9:55 PM 61.3 °F 46.0 °F 57% 29.96 in 10.0 mi West 4.6 mph - N/A   Clear
10:15 PM 60.6 °F 45.7 °F 58% 29.97 in 10.0 mi WSW 4.6 mph - N/A   Clear
10:35 PM 59.9 °F 46.0 °F 60% 29.97 in 10.0 mi West 3.5 mph - N/A   Clear
10:55 PM 59.2 °F 45.7 °F 61% 29.98 in 10.0 mi WSW 4.6 mph - N/A   Clear
11:15 PM 58.3 °F 45.5 °F 62% 29.98 in 10.0 mi West 4.6 mph - N/A   Clear
11:35 PM 58.5 °F 46.0 °F 63% 29.98 in 10.0 mi West 4.6 mph - N/A   Clear
11:55 PM 57.6 °F 46.9 °F 68% 29.98 in 10.0 mi West 5.8 mph - N/A   Clear